When you browse on this site, cookies collect data to enhance your experience and personalize the content and advertising you see.
Visit our Privacy Policy to learn more. By continuing to use the site, you agree to this use of cookies and data.
  • In Österreich
  • Länderverzeichnis
  • Für 7 Tage
  • Wassertemperatur
  • Satellitenkarten
  • Wetterkarte
  • News
  • Widgets
  • user-avatar
    Anmelden

    Stündliche Wetter Fier

    Heute, 25 Juni, Dienstag

    Zeit Temperatur Niederschläge Wind Luftdruck Luftfeuchtigkeit
    00:00 +24°C° 0 mm 2 m/S 760 mmHg 83%
    01:00 +23°C° 0 mm 2 m/S 760 mmHg 83%
    02:00 +23°C° 0 mm 2 m/S 760 mmHg 81%
    03:00 +23°C° 0 mm 2 m/S 759 mmHg 80%
    04:00 +23°C° 0 mm 2 m/S 759 mmHg 78%
    05:00 +24°C° 0 mm 3 m/S 759 mmHg 71%
    06:00 +26°C° 0 mm 3 m/S 760 mmHg 64%
    07:00 +28°C° 0 mm 3 m/S 760 mmHg 57%
    08:00 +30°C° 0 mm 3 m/S 760 mmHg 50%
    09:00 +33°C° 0 mm 3 m/S 761 mmHg 44%
    10:00 +35°C° 0 mm 4 m/S 761 mmHg 37%
    11:00 +35°C° 0 mm 3 m/S 761 mmHg 36%
    12:00 +36°C° 0 mm 3 m/S 761 mmHg 34%
    13:00 +37°C° 0 mm 3 m/S 761 mmHg 32%
    14:00 +36°C° 0 mm 4 m/S 761 mmHg 36%
    15:00 +35°C° 0 mm 5 m/S 761 mmHg 40%
    16:00 +35°C° 0 mm 5 m/S 760 mmHg 44%
    17:00 +33°C° 0 mm 5 m/S 761 mmHg 50%
    18:00 +32°C° 0 mm 5 m/S 761 mmHg 57%
    19:00 +29°C° 0 mm 5 m/S 761 mmHg 63%
    20:00 +28°C° 0 mm 4 m/S 762 mmHg 64%
    21:00 +28°C° 0 mm 4 m/S 762 mmHg 65%
    22:00 +27°C° 0 mm 3 m/S 762 mmHg 66%
    23:00 +27°C° 0 mm 3 m/S 762 mmHg 64%

    Morgen, 26 Juni, Mittwoch

    Zeit Temperatur Niederschläge Wind Luftdruck Luftfeuchtigkeit
    00:00 +26°C° 0 mm 2 m/S 762 mmHg 62%
    01:00 +26°C° 0 mm 2 m/S 762 mmHg 60%
    02:00 +26°C° 0 mm 2 m/S 762 mmHg 61%
    03:00 +26°C° 0 mm 3 m/S 762 mmHg 62%
    04:00 +25°C° 0 mm 3 m/S 761 mmHg 62%
    05:00 +27°C° 0 mm 3 m/S 762 mmHg 59%
    06:00 +28°C° 0 mm 3 m/S 762 mmHg 57%
    07:00 +30°C° 0 mm 3 m/S 762 mmHg 54%
    08:00 +32°C° 0 mm 4 m/S 762 mmHg 49%
    09:00 +34°C° 0 mm 4 m/S 762 mmHg 44%
    10:00 +36°C° 0 mm 4 m/S 761 mmHg 38%
    11:00 +36°C° 0 mm 4 m/S 761 mmHg 37%
    12:00 +37°C° 0 mm 4 m/S 761 mmHg 36%
    13:00 +38°C° 0 mm 4 m/S 761 mmHg 35%
    14:00 +37°C° 0 mm 4 m/S 761 mmHg 37%
    15:00 +37°C° 0 mm 5 m/S 761 mmHg 39%
    16:00 +36°C° 0 mm 5 m/S 760 mmHg 40%
    17:00 +35°C° 0 mm 5 m/S 760 mmHg 46%
    18:00 +33°C° 0 mm 4 m/S 760 mmHg 51%
    19:00 +32°C° 0 mm 4 m/S 760 mmHg 56%
    20:00 +30°C° 0 mm 4 m/S 761 mmHg 56%
    21:00 +29°C° 0 mm 3 m/S 761 mmHg 56%
    22:00 +28°C° 0 mm 3 m/S 761 mmHg 56%
    23:00 +28°C° 0 mm 3 m/S 761 mmHg 58%

    übermorgen, 27 Juni, Donnerstag

    Zeit Temperatur Niederschläge Wind Luftdruck Luftfeuchtigkeit
    00:00 +27°C° 0 mm 3 m/S 761 mmHg 59%
    01:00 +27°C° 0 mm 3 m/S 761 mmHg 61%
    02:00 +26°C° 0 mm 3 m/S 761 mmHg 62%
    03:00 +26°C° 0 mm 3 m/S 761 mmHg 62%
    04:00 +26°C° 0 mm 2 m/S 760 mmHg 63%
    05:00 +27°C° 0 mm 2 m/S 760 mmHg 60%
    06:00 +28°C° 0 mm 2 m/S 760 mmHg 57%
    07:00 +30°C° 0 mm 1 m/S 760 mmHg 53%
    08:00 +31°C° 0 mm 1 m/S 760 mmHg 49%
    09:00 +34°C° 0 mm 2 m/S 760 mmHg 44%
    10:00 +35°C° 0 mm 2 m/S 760 mmHg 39%
    11:00 +35°C° 0 mm 3 m/S 760 mmHg 40%
    12:00 +36°C° 0 mm 4 m/S 760 mmHg 40%
    13:00 +36°C° 0 mm 5 m/S 759 mmHg 41%
    14:00 +35°C° 0 mm 6 m/S 759 mmHg 42%
    15:00 +35°C° 0 mm 6 m/S 759 mmHg 44%
    16:00 +34°C° 0 mm 6 m/S 758 mmHg 46%
    17:00 +33°C° 0 mm 5 m/S 758 mmHg 53%
    18:00 +30°C° 0 mm 3 m/S 758 mmHg 60%
    19:00 +28°C° 0 mm 2 m/S 758 mmHg 67%
    20:00 +28°C° 0 mm 2 m/S 758 mmHg 69%
    21:00 +27°C° 0 mm 2 m/S 758 mmHg 72%
    22:00 +26°C° 0 mm 1 m/S 758 mmHg 74%
    23:00 +26°C° 0 mm 1 m/S 758 mmHg 74%

    28 Juni, Freitag

    Zeit Temperatur Niederschläge Wind Luftdruck Luftfeuchtigkeit
    00:00 +26°C° 0 mm 1 m/S 758 mmHg 73%
    01:00 +25°C° 0 mm 1 m/S 758 mmHg 72%
    02:00 +25°C° 0 mm 1 m/S 758 mmHg 70%
    03:00 +25°C° 0 mm 1 m/S 757 mmHg 68%
    04:00 +25°C° 0 mm 2 m/S 757 mmHg 66%
    05:00 +26°C° 0 mm 2 m/S 757 mmHg 60%
    06:00 +28°C° 0 mm 2 m/S 757 mmHg 54%
    07:00 +29°C° 0 mm 1 m/S 757 mmHg 49%
    08:00 +31°C° 0 mm 2 m/S 757 mmHg 46%
    09:00 +34°C° 0 mm 3 m/S 757 mmHg 43%
    10:00 +35°C° 0 mm 3 m/S 757 mmHg 40%
    11:00 +35°C° 0 mm 4 m/S 757 mmHg 40%
    12:00 +36°C° 0 mm 5 m/S 756 mmHg 40%
    13:00 +36°C° 0 mm 5 m/S 756 mmHg 40%
    14:00 +36°C° 0 mm 6 m/S 756 mmHg 38%
    15:00 +35°C° 0 mm 6 m/S 756 mmHg 36%
    16:00 +35°C° 0 mm 6 m/S 755 mmHg 35%
    17:00 +33°C° 0 mm 5 m/S 755 mmHg 42%
    18:00 +30°C° 0 mm 5 m/S 756 mmHg 50%
    19:00 +28°C° 0 mm 4 m/S 756 mmHg 58%
    20:00 +28°C° 0 mm 3 m/S 756 mmHg 58%
    21:00 +27°C° 0 mm 3 m/S 756 mmHg 59%
    22:00 +26°C° 0 mm 3 m/S 757 mmHg 59%
    23:00 +26°C° 0 mm 3 m/S 757 mmHg 59%

    29 Juni, Samstag

    Zeit Temperatur Niederschläge Wind Luftdruck Luftfeuchtigkeit
    00:00 +26°C° 0 mm 3 m/S 757 mmHg 59%
    01:00 +25°C° 0 mm 3 m/S 757 mmHg 59%
    02:00 +25°C° 0 mm 4 m/S 757 mmHg 60%
    03:00 +23°C° 0 mm 4 m/S 757 mmHg 60%
    04:00 +23°C° 0 mm 4 m/S 757 mmHg 61%
    05:00 +25°C° 0 mm 4 m/S 757 mmHg 58%
    06:00 +26°C° 0 mm 4 m/S 757 mmHg 55%
    07:00 +27°C° 0 mm 4 m/S 758 mmHg 51%
    08:00 +29°C° 0 mm 4 m/S 758 mmHg 45%
    09:00 +31°C° 0 mm 3 m/S 758 mmHg 38%
    10:00 +34°C° 0 mm 3 m/S 758 mmHg 32%
    11:00 +34°C° 0 mm 4 m/S 758 mmHg 33%
    12:00 +35°C° 0 mm 4 m/S 758 mmHg 33%
    13:00 +35°C° 0 mm 5 m/S 758 mmHg 34%
    14:00 +35°C° 0 mm 5 m/S 758 mmHg 35%
    15:00 +34°C° 0 mm 6 m/S 758 mmHg 37%
    16:00 +34°C° 0 mm 6 m/S 757 mmHg 38%
    17:00 +32°C° 0 mm 6 m/S 758 mmHg 45%
    18:00 +30°C° 0 mm 5 m/S 758 mmHg 53%
    19:00 +28°C° 0 mm 4 m/S 758 mmHg 60%
    20:00 +27°C° 0 mm 4 m/S 758 mmHg 63%
    21:00 +26°C° 0 mm 3 m/S 759 mmHg 65%
    22:00 +25°C° 0 mm 3 m/S 759 mmHg 67%
    23:00 +25°C° 0 mm 3 m/S 759 mmHg 65%

    30 Juni, Sonntag

    Zeit Temperatur Niederschläge Wind Luftdruck Luftfeuchtigkeit
    00:00 +25°C° 0 mm 3 m/S 759 mmHg 62%
    01:00 +24°C° 0 mm 2 m/S 759 mmHg 60%
    02:00 +24°C° 0 mm 3 m/S 759 mmHg 60%
    03:00 +22°C° 0 mm 3 m/S 759 mmHg 60%
    04:00 +22°C° 0 mm 3 m/S 759 mmHg 60%
    05:00 +25°C° 0 mm 3 m/S 759 mmHg 57%
    06:00 +26°C° 0 mm 3 m/S 759 mmHg 54%
    07:00 +28°C° 0 mm 2 m/S 759 mmHg 51%
    08:00 +29°C° 0 mm 2 m/S 760 mmHg 46%
    09:00 +31°C° 0 mm 2 m/S 760 mmHg 41%
    10:00 +32°C° 0 mm 2 m/S 760 mmHg 37%
    11:00 +34°C° 0 mm 3 m/S 760 mmHg 36%
    12:00 +34°C° 0 mm 4 m/S 760 mmHg 36%
    13:00 +34°C° 0 mm 5 m/S 760 mmHg 36%
    14:00 +34°C° 0 mm 5 m/S 760 mmHg 37%
    15:00 +33°C° 0 mm 5 m/S 759 mmHg 38%
    16:00 +33°C° 0 mm 5 m/S 759 mmHg 38%
    17:00 +30°C° 0 mm 4 m/S 759 mmHg 44%
    18:00 +29°C° 0 mm 4 m/S 759 mmHg 50%
    19:00 +27°C° 0 mm 4 m/S 759 mmHg 56%
    20:00 +27°C° 0 mm 4 m/S 760 mmHg 56%
    21:00 +26°C° 0 mm 3 m/S 760 mmHg 55%
    22:00 +25°C° 0 mm 3 m/S 761 mmHg 55%
    23:00 +25°C° 0 mm 3 m/S 760 mmHg 53%
    Mehr zeigen